TDRS 5

Last updated on Wed Sep 17 2025 00:02:40 GMT+0000 (Coordinated Universal Time)

1 21639U 91054B 25259.48378024 .00000072 00000+0 00000+0 0 9996 2 21639 14.1051 355.7852 0011670 240.1612 126.4517 1.00265753124979
UTC large
Height (km)
Speed (km/s)
/
Latitude / Longitude
Inclination (degrees)
Orbital Period (minutes)
Azimuth
Elevation
Range (km)
Doppler Factor

Next 0 passes for location: London (51.5072 / 0.1276)

Sorry there are no passes over London.